DLH2611 ENBR-EDDH

Flight info

Callsign DLH2611
Flight time 1h 18m
Altitude 37000
Route TUXIL DCT ZOL DCT RAMUD DCT ALASA M852 EKERN/N0356F230 T905 BOGMU BOGMU5A
Aircraft A20N/M-SDE2E3FGHIRWXY/LB1

Departure

Time 2026-05-05 18:17
Airport Bergen Airport, Flesland (ENBR)

Arrival

Time 2026-05-05 19:36
Airport Hamburg Helmut Schmidt Airport (EDDH)
Time Latitude Longitude Altitude Speed Heading
2026-05-05 17:46 60.28814 5.22699 160 ft 0 kts 30°
2026-05-05 18:08 60.28807 5.22690 160 ft 2 kts 30°
2026-05-05 18:08 60.28794 5.22675 160 ft 2 kts 30°
2026-05-05 18:08 60.28781 5.22660 160 ft 2 kts 30°
2026-05-05 18:09 60.28768 5.22644 160 ft 2 kts 30°
2026-05-05 18:09 60.28753 5.22627 160 ft 3 kts 30°
2026-05-05 18:09 60.28735 5.22601 160 ft 3 kts 49°
2026-05-05 18:09 60.28723 5.22564 160 ft 3 kts 71°
2026-05-05 18:10 60.28720 5.22520 160 ft 3 kts 99°
2026-05-05 18:10 60.28725 5.22489 160 ft 2 kts 127°
2026-05-05 18:10 60.28735 5.22468 160 ft 2 kts 154°
2026-05-05 18:10 60.28749 5.22459 160 ft 2 kts 172°
2026-05-05 18:11 60.28750 5.22459 160 ft 0 kts 172°
2026-05-05 18:12 60.28749 5.22459 160 ft 0 kts 172°
2026-05-05 18:12 60.28726 5.22465 160 ft 7 kts 173°
2026-05-05 18:12 60.28673 5.22379 159 ft 13 kts 212°
2026-05-05 18:12 60.28567 5.22398 158 ft 18 kts 169°
2026-05-05 18:13 60.28439 5.22439 157 ft 15 kts 170°
2026-05-05 18:13 60.28327 5.22478 156 ft 18 kts 171°
2026-05-05 18:13 60.28196 5.22520 155 ft 20 kts 170°
2026-05-05 18:13 60.28074 5.22521 154 ft 13 kts 224°
2026-05-05 18:14 60.28058 5.22453 154 ft 0 kts 257°
2026-05-05 18:15 60.28058 5.22450 154 ft 1 kts 257°
2026-05-05 18:16 60.28048 5.22357 152 ft 13 kts 262°
2026-05-05 18:16 60.28107 5.22229 152 ft 15 kts 352°
2026-05-05 18:16 60.28262 5.22179 156 ft 45 kts 350°
2026-05-05 18:16 60.28800 5.21996 160 ft 109 kts 350°
2026-05-05 18:17 60.29711 5.21687 260 ft 146 kts 348°
2026-05-05 18:17 60.30691 5.21369 941 ft 142 kts 348°
2026-05-05 18:17 60.31676 5.21037 1590 ft 145 kts 348°
2026-05-05 18:17 60.32692 5.20692 2127 ft 154 kts 348°
2026-05-05 18:18 60.33811 5.20307 2553 ft 173 kts 348°
2026-05-05 18:18 60.35061 5.19878 3053 ft 192 kts 349°
2026-05-05 18:18 60.36446 5.19405 3586 ft 210 kts 349°
2026-05-05 18:18 60.37947 5.18898 4098 ft 232 kts 349°
2026-05-05 18:19 60.39585 5.18158 4702 ft 249 kts 335°
2026-05-05 18:19 60.40947 5.15995 5633 ft 252 kts 306°
2026-05-05 18:19 60.41615 5.12720 6641 ft 256 kts 278°
2026-05-05 18:19 60.41418 5.09130 7574 ft 263 kts 250°
2026-05-05 18:20 60.40377 5.06060 8539 ft 271 kts 223°
2026-05-05 18:20 60.38693 5.04232 9463 ft 282 kts 196°
2026-05-05 18:20 60.36747 5.03812 10322 ft 292 kts 184°
2026-05-05 18:20 60.34610 5.03653 10713 ft 314 kts 186°
2026-05-05 18:21 60.32372 5.03151 11060 ft 334 kts 192°
2026-05-05 18:21 60.30076 5.02271 11781 ft 340 kts 194°
2026-05-05 18:21 60.27710 5.01674 12594 ft 348 kts 185°
2026-05-05 18:21 60.25271 5.01962 13398 ft 358 kts 173°
2026-05-05 18:22 60.22787 5.02941 14144 ft 364 kts 172°
2026-05-05 18:22 60.20294 5.03946 14917 ft 367 kts 172°
2026-05-05 18:22 60.17775 5.04953 15682 ft 370 kts 172°
2026-05-05 18:22 60.15262 5.06345 16415 ft 378 kts 164°
2026-05-05 18:23 60.12839 5.08375 17099 ft 385 kts 161°
2026-05-05 18:23 60.10367 5.10529 17780 ft 390 kts 161°
2026-05-05 18:23 60.07862 5.12699 18438 ft 394 kts 162°
2026-05-05 18:23 60.05325 5.14885 18982 ft 400 kts 162°
2026-05-05 18:24 60.02751 5.17092 19551 ft 405 kts 163°
2026-05-05 18:24 60.00151 5.19316 20127 ft 409 kts 164°
2026-05-05 18:24 59.97518 5.21565 20674 ft 413 kts 164°
2026-05-05 18:24 59.94868 5.23823 21237 ft 417 kts 165°
2026-05-05 18:25 59.92176 5.26111 21811 ft 422 kts 165°
2026-05-05 18:25 59.91265 5.26885 22002 ft 423 kts 165°
2026-05-05 18:25 59.86728 5.30728 22945 ft 429 kts 166°
2026-05-05 18:25 59.83969 5.33061 23527 ft 433 kts 166°
2026-05-05 18:26 59.81161 5.35182 24027 ft 428 kts 173°
2026-05-05 18:26 59.78290 5.36556 24541 ft 419 kts 180°
2026-05-05 18:26 59.75444 5.37195 25022 ft 415 kts 186°
2026-05-05 18:26 59.72556 5.37632 25483 ft 417 kts 186°
2026-05-05 18:27 59.69651 5.38080 25963 ft 419 kts 185°
2026-05-05 18:27 59.66746 5.38541 26416 ft 422 kts 185°
2026-05-05 18:27 59.63797 5.39022 26861 ft 425 kts 184°
2026-05-05 18:27 59.60872 5.39678 27282 ft 430 kts 182°
2026-05-05 18:28 59.54915 5.41282 28115 ft 435 kts 182°
2026-05-05 18:28 59.51881 5.42086 28511 ft 437 kts 182°
2026-05-05 18:28 59.48891 5.42859 28908 ft 438 kts 182°
2026-05-05 18:29 59.45850 5.43631 29273 ft 441 kts 182°
2026-05-05 18:29 59.42806 5.44397 29643 ft 442 kts 182°
2026-05-05 18:29 59.39738 5.45209 29986 ft 448 kts 180°
2026-05-05 18:29 59.36668 5.46317 30321 ft 451 kts 179°
2026-05-05 18:30 59.33567 5.47454 30597 ft 454 kts 179°
2026-05-05 18:30 59.30461 5.48591 30920 ft 455 kts 178°
2026-05-05 18:30 59.27336 5.49730 31259 ft 456 kts 178°
2026-05-05 18:30 59.24214 5.50865 31645 ft 456 kts 178°
2026-05-05 18:31 59.21102 5.51994 32046 ft 455 kts 178°
2026-05-05 18:31 59.17991 5.53118 32430 ft 454 kts 178°
2026-05-05 18:31 59.14888 5.54236 32806 ft 454 kts 178°
2026-05-05 18:31 59.11791 5.55349 33171 ft 453 kts 178°
2026-05-05 18:32 59.08725 5.56450 33544 ft 452 kts 178°
2026-05-05 18:32 59.05629 5.57559 33898 ft 452 kts 178°
2026-05-05 18:32 59.02524 5.58669 34206 ft 451 kts 178°
2026-05-05 18:32 58.99438 5.59770 34463 ft 452 kts 178°
2026-05-05 18:33 58.96355 5.60868 34718 ft 452 kts 178°
2026-05-05 18:33 58.93247 5.61972 34965 ft 452 kts 177°
2026-05-05 18:33 58.91202 5.62746 35122 ft 454 kts 175°
2026-05-05 18:33 58.88132 5.64432 35370 ft 461 kts 168°
2026-05-05 18:34 58.85149 5.66806 35598 ft 468 kts 161°
2026-05-05 18:34 58.82280 5.69855 35832 ft 473 kts 155°
2026-05-05 18:34 58.79461 5.73133 36069 ft 473 kts 155°
2026-05-05 18:34 58.76645 5.76389 36305 ft 472 kts 155°
2026-05-05 18:35 58.73824 5.79627 36540 ft 472 kts 155°
2026-05-05 18:35 58.70999 5.82850 36766 ft 471 kts 155°
2026-05-05 18:35 58.68183 5.86049 36951 ft 471 kts 155°
2026-05-05 18:35 58.65352 5.89254 37016 ft 471 kts 155°
2026-05-05 18:36 58.59761 5.95567 37011 ft 469 kts 155°
2026-05-05 18:36 58.54125 6.01904 37006 ft 469 kts 156°
2026-05-05 18:37 58.48491 6.08217 37004 ft 469 kts 156°
2026-05-05 18:37 58.42854 6.14511 37005 ft 468 kts 156°
2026-05-05 18:38 58.37224 6.20772 37002 ft 468 kts 156°
2026-05-05 18:38 58.31588 6.27018 37005 ft 468 kts 156°
2026-05-05 18:39 58.25952 6.33240 36993 ft 468 kts 156°
2026-05-05 18:39 58.20367 6.39383 37003 ft 468 kts 156°
2026-05-05 18:40 58.14726 6.45565 37000 ft 467 kts 156°
2026-05-05 18:40 58.09092 6.51717 36990 ft 467 kts 156°
2026-05-05 18:41 58.03454 6.57850 36987 ft 467 kts 156°
2026-05-05 18:41 57.97822 6.63953 36989 ft 466 kts 156°
2026-05-05 18:42 57.92231 6.69992 36988 ft 466 kts 156°
2026-05-05 18:42 57.86596 6.76055 36985 ft 466 kts 156°
2026-05-05 18:43 57.80962 6.82095 36985 ft 465 kts 156°
2026-05-05 18:43 57.75332 6.88109 36982 ft 465 kts 156°
2026-05-05 18:44 57.69743 6.94057 36983 ft 465 kts 156°
2026-05-05 18:44 57.64111 7.00031 36984 ft 464 kts 156°
2026-05-05 18:45 57.58485 7.05976 36983 ft 464 kts 156°
2026-05-05 18:45 57.52858 7.11901 36983 ft 464 kts 156°
2026-05-05 18:46 57.47271 7.17763 36983 ft 463 kts 156°
2026-05-05 18:46 57.41650 7.23639 36986 ft 463 kts 156°
2026-05-05 18:47 57.36029 7.29495 36983 ft 462 kts 156°
2026-05-05 18:47 57.30425 7.35313 36983 ft 462 kts 156°
2026-05-05 18:48 57.24836 7.41094 36983 ft 461 kts 156°
2026-05-05 18:48 57.19233 7.46869 36982 ft 461 kts 156°
2026-05-05 18:49 57.13635 7.52620 36984 ft 460 kts 156°
2026-05-05 18:49 57.08031 7.58360 36980 ft 460 kts 156°
2026-05-05 18:50 57.02466 7.64192 36965 ft 461 kts 154°
2026-05-05 18:50 56.97040 7.70333 36979 ft 461 kts 154°
2026-05-05 18:51 56.91577 7.76487 36975 ft 461 kts 154°
2026-05-05 18:51 56.86109 7.82569 36979 ft 460 kts 154°
2026-05-05 18:52 56.80617 7.88641 36980 ft 460 kts 154°
2026-05-05 18:52 56.75141 7.94673 36978 ft 459 kts 154°
2026-05-05 18:53 56.69679 8.00669 36982 ft 459 kts 154°
2026-05-05 18:53 56.64205 8.06658 36984 ft 458 kts 154°
2026-05-05 18:54 56.58750 8.12606 36977 ft 458 kts 154°
2026-05-05 18:54 56.53288 8.18542 36976 ft 457 kts 154°
2026-05-05 18:55 56.47836 8.24446 36976 ft 457 kts 155°
2026-05-05 18:55 56.42400 8.30314 36978 ft 457 kts 155°
2026-05-05 18:56 56.36930 8.36198 36978 ft 456 kts 155°
2026-05-05 18:56 56.31473 8.42049 36976 ft 456 kts 155°
2026-05-05 18:57 56.26017 8.47878 36978 ft 456 kts 155°
2026-05-05 18:57 56.20601 8.53646 36976 ft 455 kts 155°
2026-05-05 18:58 56.15139 8.59442 36967 ft 455 kts 155°
2026-05-05 18:58 56.09690 8.65207 36969 ft 455 kts 155°
2026-05-05 18:59 56.04239 8.70955 36964 ft 454 kts 155°
2026-05-05 18:59 55.98813 8.76657 36962 ft 454 kts 155°
2026-05-05 19:00 55.93361 8.82366 36965 ft 454 kts 155°
2026-05-05 19:00 55.87915 8.88051 36962 ft 453 kts 155°
2026-05-05 19:01 55.82500 8.93686 36963 ft 453 kts 155°
2026-05-05 19:01 55.77089 8.99299 36966 ft 452 kts 155°
2026-05-05 19:02 55.71649 9.04923 36959 ft 452 kts 155°
2026-05-05 19:02 55.66219 9.10518 36962 ft 451 kts 155°
2026-05-05 19:03 55.60779 9.16105 36965 ft 451 kts 155°
2026-05-05 19:03 55.55343 9.21670 36937 ft 451 kts 155°
2026-05-05 19:04 55.49912 9.27212 36935 ft 451 kts 155°
2026-05-05 19:04 55.44526 9.32693 36552 ft 447 kts 155°
2026-05-05 19:05 55.41848 9.35411 35994 ft 445 kts 155°
2026-05-05 19:05 55.39153 9.38141 35347 ft 445 kts 155°
2026-05-05 19:05 55.36463 9.40860 34670 ft 445 kts 155°
2026-05-05 19:05 55.33781 9.43569 34000 ft 446 kts 155°
2026-05-05 19:06 55.31084 9.46289 33202 ft 446 kts 155°
2026-05-05 19:06 55.28389 9.49005 32358 ft 448 kts 155°
2026-05-05 19:06 55.25684 9.51726 31513 ft 450 kts 156°
2026-05-05 19:06 55.22954 9.54468 30664 ft 452 kts 156°
2026-05-05 19:07 55.20216 9.57216 29896 ft 453 kts 157°
2026-05-05 19:07 55.17496 9.59943 29208 ft 449 kts 157°
2026-05-05 19:07 55.14808 9.62634 28550 ft 444 kts 157°
2026-05-05 19:07 55.12124 9.65312 27885 ft 441 kts 157°
2026-05-05 19:08 55.09495 9.67929 27258 ft 437 kts 157°
2026-05-05 19:08 55.06857 9.70551 26631 ft 433 kts 157°
2026-05-05 19:08 55.04245 9.73114 26028 ft 428 kts 160°
2026-05-05 19:08 55.01533 9.75041 25415 ft 415 kts 171°
2026-05-05 19:09 54.98732 9.75857 24801 ft 401 kts 184°
2026-05-05 19:09 54.95996 9.75541 24184 ft 391 kts 194°
2026-05-05 19:09 54.93318 9.74812 23589 ft 388 kts 195°
2026-05-05 19:09 54.90655 9.74102 22936 ft 386 kts 193°
2026-05-05 19:10 54.88001 9.73465 22310 ft 383 kts 193°
2026-05-05 19:10 54.85378 9.72827 21678 ft 380 kts 193°
2026-05-05 19:10 54.82805 9.72182 21292 ft 372 kts 194°
2026-05-05 19:10 54.80265 9.71530 20838 ft 371 kts 194°
2026-05-05 19:11 54.77659 9.70846 20178 ft 373 kts 194°
2026-05-05 19:11 54.75141 9.70183 19605 ft 371 kts 194°
2026-05-05 19:11 54.72601 9.69516 19265 ft 364 kts 193°
2026-05-05 19:11 54.70080 9.68854 19108 ft 370 kts 193°
2026-05-05 19:12 54.67526 9.68181 19016 ft 370 kts 193°
2026-05-05 19:12 54.64989 9.67519 18711 ft 367 kts 193°
2026-05-05 19:12 54.62464 9.66861 18238 ft 366 kts 193°
2026-05-05 19:12 54.59955 9.66207 17633 ft 364 kts 193°
2026-05-05 19:13 54.57459 9.65556 17028 ft 361 kts 193°
2026-05-05 19:13 54.54979 9.64910 16461 ft 359 kts 193°
2026-05-05 19:13 54.52520 9.64270 15911 ft 356 kts 192°
2026-05-05 19:13 54.50075 9.63636 15357 ft 354 kts 192°
2026-05-05 19:14 54.47648 9.63007 14821 ft 351 kts 192°
2026-05-05 19:14 54.45232 9.62381 14286 ft 349 kts 192°
2026-05-05 19:14 54.42832 9.61760 13772 ft 347 kts 192°
2026-05-05 19:14 54.40455 9.61146 13220 ft 345 kts 192°
2026-05-05 19:15 54.38094 9.60537 12676 ft 342 kts 191°
2026-05-05 19:15 54.35752 9.59933 12157 ft 339 kts 191°
2026-05-05 19:15 54.33413 9.59331 11626 ft 337 kts 191°
2026-05-05 19:15 54.31109 9.58739 11190 ft 332 kts 191°
2026-05-05 19:16 54.28863 9.58166 11043 ft 319 kts 191°
2026-05-05 19:16 54.26713 9.57619 10908 ft 306 kts 191°
2026-05-05 19:16 54.24647 9.57093 10805 ft 293 kts 191°
2026-05-05 19:16 54.22685 9.56593 10546 ft 286 kts 191°
2026-05-05 19:17 54.20723 9.56088 10190 ft 284 kts 191°
2026-05-05 19:17 54.18786 9.55592 9988 ft 281 kts 191°
2026-05-05 19:17 54.16828 9.55089 9917 ft 285 kts 191°
2026-05-05 19:17 54.14874 9.54590 9912 ft 284 kts 191°
2026-05-05 19:18 54.12923 9.54094 9909 ft 284 kts 191°
2026-05-05 19:18 54.10965 9.53596 9906 ft 284 kts 191°
2026-05-05 19:18 54.09006 9.53098 9909 ft 284 kts 191°
2026-05-05 19:18 54.07050 9.52602 9909 ft 284 kts 191°
2026-05-05 19:19 54.05094 9.52107 9907 ft 284 kts 191°
2026-05-05 19:19 54.03138 9.51613 9907 ft 284 kts 191°
2026-05-05 19:19 54.01184 9.51119 9907 ft 284 kts 191°
2026-05-05 19:19 53.99232 9.50626 9906 ft 284 kts 191°
2026-05-05 19:20 53.97304 9.50140 9906 ft 284 kts 191°
2026-05-05 19:20 53.95347 9.49647 9903 ft 284 kts 191°
2026-05-05 19:20 53.93389 9.49154 9904 ft 284 kts 191°
2026-05-05 19:20 53.92093 9.48828 9904 ft 283 kts 191°
2026-05-05 19:21 53.90141 9.48337 9908 ft 284 kts 191°
2026-05-05 19:21 53.88195 9.47848 9874 ft 280 kts 191°
2026-05-05 19:21 53.86296 9.47373 9800 ft 270 kts 191°
2026-05-05 19:21 53.84472 9.46918 9704 ft 259 kts 191°
2026-05-05 19:22 53.82730 9.46482 9560 ft 249 kts 191°
2026-05-05 19:22 53.81028 9.46054 9220 ft 247 kts 191°
2026-05-05 19:22 53.79342 9.45626 8850 ft 247 kts 191°
2026-05-05 19:22 53.77649 9.45187 8498 ft 246 kts 191°
2026-05-05 19:23 53.75962 9.44744 8165 ft 245 kts 191°
2026-05-05 19:23 53.74283 9.44297 7829 ft 244 kts 191°
2026-05-05 19:23 53.72608 9.43846 7499 ft 243 kts 191°
2026-05-05 19:23 53.70937 9.43392 7157 ft 243 kts 191°
2026-05-05 19:24 53.69278 9.42933 6844 ft 242 kts 191°
2026-05-05 19:24 53.67621 9.42463 6524 ft 242 kts 191°
2026-05-05 19:24 53.65961 9.41978 6202 ft 241 kts 191°
2026-05-05 19:24 53.64305 9.41481 5843 ft 242 kts 191°
2026-05-05 19:25 53.62648 9.40963 5508 ft 242 kts 191°
2026-05-05 19:25 53.60994 9.40428 5178 ft 242 kts 191°
2026-05-05 19:25 53.59348 9.39877 4851 ft 242 kts 191°
2026-05-05 19:25 53.57712 9.39316 4546 ft 241 kts 191°
2026-05-05 19:26 53.56043 9.38905 4253 ft 238 kts 175°
2026-05-05 19:26 53.54536 9.39718 4041 ft 229 kts 143°
2026-05-05 19:26 53.53252 9.41390 3995 ft 234 kts 139°
2026-05-05 19:26 53.51989 9.43104 3995 ft 232 kts 139°
2026-05-05 19:27 53.50732 9.44805 3993 ft 232 kts 139°
2026-05-05 19:27 53.49478 9.46505 3994 ft 233 kts 139°
2026-05-05 19:27 53.48217 9.48217 3991 ft 232 kts 139°
2026-05-05 19:27 53.46964 9.49927 3989 ft 232 kts 136°
2026-05-05 19:28 53.46060 9.52108 3971 ft 225 kts 106°
2026-05-05 19:28 53.45993 9.54669 3708 ft 221 kts 73°
2026-05-05 19:28 53.46454 9.57110 3367 ft 220 kts 78°
2026-05-05 19:28 53.46618 9.59658 3071 ft 216 kts 84°
2026-05-05 19:29 53.46736 9.62159 2995 ft 219 kts 84°
2026-05-05 19:29 53.47085 9.64601 2998 ft 215 kts 60°
2026-05-05 19:29 53.47908 9.66707 2994 ft 216 kts 54°
2026-05-05 19:29 53.48760 9.68675 2984 ft 201 kts 53°
2026-05-05 19:30 53.49594 9.70569 2986 ft 206 kts 53°
2026-05-05 19:30 53.50392 9.72355 2983 ft 191 kts 53°
2026-05-05 19:30 53.51157 9.74059 2981 ft 176 kts 53°
2026-05-05 19:30 53.51891 9.75680 3003 ft 178 kts 53°
2026-05-05 19:31 53.52631 9.77300 2951 ft 171 kts 53°
2026-05-05 19:31 53.53340 9.78833 2767 ft 162 kts 52°
2026-05-05 19:31 53.54025 9.80305 2588 ft 156 kts 52°
2026-05-05 19:31 53.54686 9.81714 2403 ft 150 kts 52°
2026-05-05 19:32 53.55310 9.83035 2179 ft 138 kts 51°
2026-05-05 19:32 53.55876 9.84223 2009 ft 123 kts 52°
2026-05-05 19:32 53.56415 9.85347 1844 ft 123 kts 52°
2026-05-05 19:32 53.56955 9.86470 1683 ft 123 kts 51°
2026-05-05 19:33 53.57493 9.87592 1500 ft 124 kts 52°
2026-05-05 19:33 53.58035 9.88722 1330 ft 124 kts 51°
2026-05-05 19:33 53.58583 9.89827 1158 ft 125 kts 51°
2026-05-05 19:33 53.59135 9.90942 981 ft 124 kts 50°
2026-05-05 19:34 53.59700 9.92076 830 ft 128 kts 50°
2026-05-05 19:34 53.60268 9.93223 595 ft 127 kts 51°
2026-05-05 19:34 53.60826 9.94356 456 ft 126 kts 50°
2026-05-05 19:35 53.61963 9.96651 88 ft 125 kts 50°
2026-05-05 19:35 53.62494 9.97731 40 ft 103 kts 50°
2026-05-05 19:35 53.62873 9.98499 44 ft 75 kts 50°
2026-05-05 19:35 53.63161 9.99081 46 ft 54 kts 50°
2026-05-05 19:36 53.63290 9.99404 46 ft 21 kts 83°
2026-05-05 19:36 53.63290 9.99518 47 ft 1 kts 95°
2026-05-05 19:36 53.63289 9.99542 47 ft 3 kts 96°
2026-05-05 19:36 53.63284 9.99593 45 ft 6 kts 100°
2026-05-05 19:37 53.63275 9.99669 48 ft 8 kts 100°
2026-05-05 19:37 53.63285 9.99772 47 ft 10 kts 56°
2026-05-05 19:37 53.63333 9.99879 48 ft 13 kts 52°
2026-05-05 19:37 53.63390 9.99983 48 ft 13 kts 46°
2026-05-05 19:38 53.63433 10.00088 48 ft 10 kts 79°
2026-05-05 19:38 53.63423 10.00194 47 ft 10 kts 116°
2026-05-05 19:38 53.63412 10.00294 48 ft 3 kts 86°
2026-05-05 19:38 53.63414 10.00326 48 ft 2 kts 84°
2026-05-05 19:39 53.63414 10.00333 48 ft 0 kts 84°